Regional Weather Roundup
Issued by NWS Goodland, KS

Home | Current Version | Previous Version | Graphics & Text | Print | Product List | Glossary On
Versions: 1 2 3 4 5 6 7 8 9 10 11 12 13 14 15 16 17 18 19 20 21 22 23 24 25 26 27 28 29 30 31 32 33 34 35 36 37 38 39 40 41 42 43 44 45 46 47 48 49 50
000
ASUS43 KGLD 302359
RWRGLD

GOODLAND FORECAST AREA HOURLY WEATHER ROUNDUP
NATIONAL WEATHER SERVICE GOODLAND KS
600 PM MDT WED JUL 30 2014

...OFFICIAL OBSERVATIONS...

CITY           SKY/WX    TMP DP  RH WIND       PRES   REMARKS
GOODLAND KS    PTSUNNY   71  55  56 NW5       30.24F
HILL CITY KS   MOSUNNY   80  52  37 E3        30.15F
IMPERIAL NEB   PTSUNNY   76  54  46 W5        30.20F
MCCOOK NEB     PTSUNNY   78  54  43 W6        30.17F
AKRON CO       CLOUDY    63  54  72 SW9       30.30F
BURLINGTON CO  CLOUDY    67  52  58 CALM      30.27F
LIMON CO       CLOUDY    61  52  72 E7        30.35R
$$

...UNOFFICIAL OBSERVATIONS...

CITY           SKY/WX    TMP DP  RH WIND       PRES   REMARKS
COLBY KS       SUNNY     72  61  68 SW5       30.21S
GOVE KS          N/A     75  32  20 MISG        N/A
LENORA KS        N/A     79  32  18 MISG        N/A
NORTON KS      SUNNY     79  45  29 NE5       30.14F
SHARON SPRINGS   N/A     69  55  62 CALM        N/A
WAKEENEY KS      N/A     77  46  32 MISG        N/A
TRENTON NEB      N/A     77  32  19 CALM        N/A
KIT CARSON CO    N/A     66  53  63 CALM        N/A
YUMA CO          N/A     67  55  64 SW6         N/A
$$



USA.gov is the U.S. government's official web portal to all federal, state and local government web resources and services.